Regional Weather Roundup
Issued by NWS Bismarck, ND

Home | Current Version | Previous Version | Text Only | Print | Product List | Glossary On
Versions: 1 2 3 4 5 6 7 8 9 10 11 12 13 14 15 16 17 18 19 20 21 22 23 24 25 26 27 28 29 30 31 32 33 34 35 36 37 38 39 40 41 42 43 44 45 46 47 48 49 50
000
ASUS43 KBIS 111002
RWRBIS

NWR BROADCAST TEXT
NATIONAL WEATHER SERVICE BISMARCK ND
400 AM CST THU FEB 11 2016

NOTE: "FAIR" INDICATES FEW OR NO CLOUDS BELOW 12,000 FEET WITH NO
SIGNIFICANT WEATHER AND/OR OBSTRUCTIONS TO VISIBILITY.


CITY           SKY/WX    TMP DP  RH WIND       PRES   REMARKS
WILLISTON      LGT SNOW  26  23  88 E3        30.08F FOG
MINOT          CLOUDY    15   6  67 CALM      30.15S
MINOT AFB      CLOUDY    12   9  89 SE2       30.14F
BISMARCK       CLOUDY    19  12  74 SE5       30.16F WCI  12
DICKINSON      CLOUDY    25  22  88 SE6       30.04S WCI  18
GARRISON         N/A     15  11  83 SE5       30.13F WCI   8
HETTINGER ARPT CLOUDY    29  24  82 S6        30.06F
JAMESTOWN      CLOUDY     6   1  80 S6        30.21F WCI  -4
CARRINGTON     CLOUDY     9   9 100 SE6       30.21F WCI  -1
HAZEN          CLOUDY    16  10  79 NE3       30.16S
LINTON         CLOUDY    14  14 100 SE9       30.18F WCI   2
MANDAN         CLOUDY    16  12  86 SE6       30.14F WCI   7
OAKES          CLOUDY     7   1  78 E5        30.24F WCI  -2
STANLEY        FLURRIES  16  16 100 SE3       30.11S
WATFORD CITY   MIX PCPN  23  19  86 SE8       30.08F WCI  14
$$

CITY           SKY/WX    TMP DP  RH WIND       PRES   REMARKS
GRAND FORKS    PTCLDY     2  -4  76 CALM      30.29R
GRAND FORKS AF PTCLDY     0  -5  78 SW5       30.28S WCI -10
DEVILS LAKE    FLURRIES   1  -2  87 CALM      30.21F
FARGO          CLOUDY     1  -4  79 W3        30.29R
GRAFTON        FAIR       0  -4  85 CALM      30.31S
GWINNER        CLOUDY     9   3  78 CALM      30.26S
LANGDON        CLOUDY     3   0  85 SW8       30.19F WCI -10
$$

CITY           SKY/WX    TMP DP  RH WIND       PRES   REMARKS
ABERDEEN       CLOUDY    14   9  80 CALM      30.25R
MOBRIDGE       CLOUDY    19  15  84 SE7       30.13F WCI  10
BUFFALO          N/A     31  28  89 S9        29.96F
RAPID CITY     CLOUDY    28  26  92 S12       30.04F FOG     WCI  18
GLASGOW        CLOUDY    29  25  85 SE16      29.99F WCI  17
SIDNEY         CLOUDY    30  25  80 CALM      30.06F
WOLF POINT     LGT SNOW  30  25  81 E12       30.04F
GLENDIVE       CLOUDY    28  27  93 NE9       30.04S WCI  20
MILES CITY     CLOUDY    33  29  85 SE6       29.96F
BAKER          CLOUDY    31  27  85 SE7       30.00F
$$

CITY           SKY/WX    TMP DP  RH WIND       PRES   REMARKS
BILLINGS       CLOUDY    47  23  38 SW10      30.02S
GREAT FALLS    CLOUDY    43  28  55 W9        30.08R
$$




USA.gov is the U.S. government's official web portal to all federal, state and local government web resources and services.